HB9UQS-13 Weather Reports


time (UTC)temp
F
wind
direction
speed
knots
gust
knots
rain 1hr
in
rain 24hr
in
rain mn
in
humidity
%
barometer
mb
20260507190730 52 203 0.9 2.6 0.00 0.00 0.00 74 928.8
20260507183730 53 34 0.0 0.9 0.00 0.00 0.00 74 928.6
20260507180730 55 239 0.9 1.7 0.00 0.00 0.00 70 928.5
20260507173730 55 193 0.9 2.6 0.00 0.00 0.00 65 928.4
20260507170730 56 157 1.7 2.6 0.00 0.00 0.00 62 928.1
20260507163730 57 199 1.7 2.6 0.00 0.00 0.00 62 928.3
20260507160729 58 176 1.7 3.5 0.00 0.00 0.00 56 928.1
20260507153730 60 204 1.7 3.5 0.00 0.00 0.00 57 928.1
20260507150731 60 138 2.6 4.3 0.00 0.00 0.00 55 928.1
20260507143730 57 265 1.7 6.1 0.00 0.00 0.00 61 928.1
20260507140730 60 305 3.5 7.8 0.00 0.00 0.00 55 928.2
20260507133730 58 173 0.9 3.5 0.00 0.00 0.00 57 928.4
20260507130731 57 155 1.7 4.3 0.00 0.00 0.00 61 928.4
20260507123730 57 200 0.9 3.5 0.00 0.00 0.00 64 928.4
20260507120730 55 289 2.6 6.1 0.00 0.00 0.00 68 928.5
20260507113729 56 298 2.6 6.1 0.00 0.00 0.00 63 928.6
20260507110730 57 302 3.5 7.8 0.00 0.00 0.00 66 928.7
20260507103730 55 302 1.7 4.3 0.00 0.00 0.00 65 928.7
20260507100730 52 323 2.6 6.1 0.00 0.00 0.00 72 928.9
20260507093730 52 288 2.6 4.3 0.00 0.00 0.00 77 928.8
20260507090730 53 213 0.9 3.5 0.00 0.00 0.00 83 928.8
20260507083730 49 275 0.9 2.6 0.00 0.00 0.00 85 928.7
20260507080730 49 299 1.7 3.5 0.00 0.00 0.00 90 928.7
20260507073730 48 245 1.7 3.5 0.00 0.00 0.00 91 928.6
20260507070730 47 264 1.7 3.5 0.00 0.00 0.00 91 928.4
20260507063730 47 294 1.7 5.2 0.00 0.00 0.00 91 928.3
20260507060730 46 267 2.6 4.3 0.00 0.00 0.00 91 928.0
20260507053730 46 250 2.6 6.1 0.00 0.00 0.00 91 927.8
20260507050731 45 293 1.7 5.2 0.00 0.00 0.00 92 927.5
20260507043730 45 280 2.6 6.1 0.00 0.00 0.00 91 927.2
20260507040730 45 266 1.7 5.2 0.00 0.00 0.00 92 927.0
20260507033730 45 282 2.6 7.8 0.00 0.00 0.00 91 927.0
20260507030730 45 283 2.6 7.0 0.00 0.00 0.00 89 926.9
20260507023730 45 292 1.7 4.3 0.00 0.00 0.00 94 926.8
20260507020730 45 290 1.7 3.5 0.00 0.00 0.00 94 926.7
20260507013730 45 290 1.7 4.3 0.00 0.00 0.00 92 926.6
20260507010729 45 277 1.7 5.2 0.00 0.00 0.00 93 926.6
20260507003729 45 286 1.7 4.3 0.00 0.00 0.00 93 926.6
20260507000730 45 284 1.7 3.5 0.00 0.00 0.00 92 926.5
20260506233729 44 282 1.7 4.3 0.00 0.00 0.00 92 926.6
20260506230730 44 272 1.7 4.3 0.00 0.00 0.00 92 926.6
20260506223730 45 288 2.6 6.1 0.00 0.00 0.00 90 926.5
20260506220730 46 281 1.7 4.3 0.00 0.00 0.00 89 926.4
20260506213730 45 271 1.7 4.3 0.00 0.00 0.00 90 926.2
20260506210730 45 286 1.7 5.2 0.00 0.00 0.00 89 926.2
20260506203730 46 280 1.7 3.5 0.00 0.00 0.00 90 925.8
20260506200730 46 268 1.7 4.3 0.00 0.00 0.00 89 925.6
20260506193730 46 254 1.7 3.5 0.00 0.00 0.00 87 925.2